User: anonymous   Login
Location: Unspecified
(0.0000°N, 0.0000°E)
Time: 07:20:39
(UTC+00:00)
Language:

PRISM - Orbit

View from above orbital plane
View from above orbital plane
View from above satellite
View from above satellite

Ground track
Ground track

The orbit data is extracted from the following two-line orbital elements,

1 33493U 09002B   19083.21370642 -.00000077  00000-0 -11925-5 0  9998
2 33493  98.1229   0.8942 0016279 107.1741 253.1263 14.96550244552211
Epoch (UTC): 24 March 2019 05:07:44
Eccentricity: 0.0016279
inclination: 98.1229°
perigee height: 566 km
apogee height: 589 km
right ascension of ascending node: 0.8942°
argument of perigee: 107.1741°
revolutions per day: 14.96550244
mean anomaly at epoch: 253.1263°
orbit number at epoch: 55221

The dashed part of the orbit path shows where the satellite is in the earth's shadow,  

DLR